GW6613 Weather Reports


time (UTC)temp
C
wind
direction
speed
KPH
gust
KPH
rain 1hr
cm
rain 24hr
cm
rain mn
cm
humidity
%
barometer
mb
20260510190546 22 158 0.0 3.2 0.00 0.53 0.00 44 1010.9
20260510190505 22 132 1.6 3.2 0.00 0.00 0.00 39 1016.3
20260510190054 22 157 0.0 3.2 0.00 0.53 0.00 46 1010.9
20260510190013 22 294 1.6 4.8 0.00 0.00 0.00 42 1016.2
20260510185547 22 156 0.0 11.3 0.00 0.53 0.00 46 1010.9
20260510185507 22 273 0.0 4.8 0.00 0.00 0.00 43 1016.2
20260510185045 22 158 1.6 11.3 0.00 0.53 0.00 45 1010.9
20260510185011 22 284 0.0 6.4 0.00 0.00 0.00 47 1016.2
20260510184546 22 283 0.0 8.0 0.00 0.53 0.00 46 1010.9
20260510184519 22 293 1.6 6.4 0.00 0.00 0.00 46 1016.2
20260510184043 22 124 1.6 8.0 0.00 0.53 0.00 45 1010.9
20260510184011 22 98 0.0 3.2 0.00 0.00 0.00 45 1016.1
20260510183542 22 118 0.0 3.2 0.00 0.53 0.00 51 1011.0
20260510183509 21 209 0.0 3.2 0.00 0.00 0.00 41 1016.1
20260510183042 22 186 0.0 3.2 0.00 0.53 0.00 55 1011.0
20260510183023 21 300 0.0 4.8 0.00 0.00 0.00 43 1016.2
20260510182540 21 183 0.0 3.2 0.00 0.53 0.00 58 1011.2
20260510182512 21 296 1.6 4.8 0.00 0.00 0.00 46 1016.4
20260510182039 21 183 0.0 3.2 0.00 0.53 0.00 58 1011.2
20260510182003 21 293 1.6 4.8 0.00 0.00 0.00 46 1016.4
20260510181539 21 77 0.0 1.6 0.00 0.53 0.00 62 1011.1
20260510181510 21 271 1.6 4.8 0.00 0.00 0.00 50 1016.4
20260510181039 21 77 0.0 1.6 0.00 0.53 0.00 61 1011.1
20260510181004 21 233 0.0 4.8 0.00 0.00 0.00 44 1016.4
20260510180540 21 72 0.0 4.8 0.00 0.53 0.00 62 1011.1
20260510180520 21 300 0.0 4.8 0.00 0.00 0.00 40 1016.5
20260510180043 21 73 0.0 4.8 0.00 0.53 0.00 62 1011.1
20260510180013 21 299 3.2 6.4 0.00 0.00 0.00 46 1016.5
20260510175538 21 150 0.0 4.8 0.00 0.56 0.00 61 1011.0
20260510175504 21 252 1.6 6.4 0.00 0.00 0.00 44 1016.5
20260510175037 21 152 1.6 3.2 0.00 0.56 0.00 61 1011.0
20260510175006 21 307 0.0 4.8 0.00 0.00 0.00 43 1016.5
20260510174537 21 191 0.0 4.8 0.00 0.56 0.00 64 1010.9
20260510174514 21 146 1.6 6.4 0.00 0.00 0.00 50 1016.5
20260510174040 21 191 0.0 4.8 0.00 0.56 0.00 62 1011.0
20260510174014 21 129 3.2 6.4 0.00 0.00 0.00 43 1016.6
20260510173537 21 191 0.0 4.8 0.00 0.56 0.00 64 1010.8
20260510173511 21 296 3.2 4.8 0.00 0.00 0.00 46 1016.7
20260510173036 21 187 0.0 3.2 0.00 0.56 0.00 62 1010.8
20260510173019 21 145 1.6 4.8 0.00 0.00 0.00 52 1016.5
20260510172535 21 146 0.0 8.0 0.00 0.56 0.00 63 1010.9
20260510172510 21 122 1.6 4.8 0.00 0.00 0.00 47 1016.6
20260510172035 21 146 0.0 8.0 0.00 0.56 0.00 66 1010.9
20260510172016 21 298 3.2 6.4 0.00 0.00 0.00 48 1016.6
20260510171534 20 178 3.2 8.0 0.00 0.56 0.00 64 1010.9
20260510171527 20 150 1.6 6.4 0.00 0.00 0.00 49 1016.5
20260510171034 20 171 1.6 4.8 0.00 0.56 0.00 65 1010.9
20260510171010 20 293 1.6 4.8 0.00 0.00 0.00 48 1016.5
20260510170536 20 273 1.6 4.8 0.00 0.00 0.00 47 1016.6
20260510170533 20 181 1.6 4.8 0.00 0.56 0.00 66 1010.9
20260510170031 20 182 0.0 4.8 0.00 0.56 0.00 68 1010.9
20260510170007 20 292 0.0 4.8 0.00 0.00 0.00 47 1016.5
20260510165530 20 173 1.6 4.8 0.00 0.56 0.00 68 1011.0
20260510165505 20 288 0.0 4.8 0.00 0.00 0.00 51 1016.4
20260510165029 19 221 0.0 6.4 0.00 0.56 0.00 69 1011.0
20260510165005 20 291 1.6 3.2 0.00 0.00 0.00 54 1016.2
20260510164529 19 116 1.6 6.4 0.00 0.56 0.00 70 1011.0
20260510164511 20 182 1.6 4.8 0.00 0.00 0.00 57 1016.2
20260510164027 19 173 1.6 8.0 0.00 0.56 0.00 70 1011.2
20260510164007 20 295 3.2 4.8 0.00 0.00 0.00 50 1016.2
20260510163526 18 166 1.6 8.0 0.00 0.56 0.00 71 1011.3
20260510163507 20 266 0.0 3.2 0.00 0.00 0.00 52 1016.3
20260510163026 18 158 1.6 8.0 0.00 0.56 0.00 70 1011.3
20260510163016 19 224 0.0 1.6 0.00 0.00 0.00 48 1016.2
20260510162525 18 168 1.6 4.8 0.00 0.56 0.00 72 1011.4
20260510162514 19 245 0.0 3.2 0.00 0.00 0.00 53 1016.2
20260510162026 18 168 1.6 4.8 0.00 0.56 0.00 72 1011.4
20260510162009 19 245 1.6 3.2 0.00 0.00 0.00 57 1016.5
20260510161524 18 191 0.0 4.8 0.00 0.56 0.00 74 1011.4
20260510161519 18 290 1.6 4.8 0.00 0.00 0.00 53 1016.5
20260510161024 18 189 1.6 4.8 0.00 0.56 0.00 71 1011.4
20260510161008 18 289 1.6 4.8 0.00 0.00 0.00 61 1016.5
20260510160523 18 184 0.0 3.2 0.00 0.56 0.00 75 1011.4
20260510160513 18 300 0.0 1.6 0.00 0.00 0.00 56 1016.4
20260510160023 18 300 0.0 4.8 0.00 0.00 0.00 53 1016.4
20260510155529 17 168 0.0 4.8 0.00 0.56 0.00 73 1011.4
20260510155516 18 300 0.0 4.8 0.00 0.00 0.00 53 1016.2
20260510155020 17 194 0.0 3.2 0.00 0.56 0.00 75 1011.3
20260510155004 18 300 1.6 6.4 0.00 0.00 0.00 58 1016.3
20260510154518 17 193 0.0 3.2 0.00 0.56 0.00 76 1011.2
20260510154508 18 300 0.0 6.4 0.00 0.00 0.00 59 1016.2
20260510154017 17 193 0.0 4.8 0.00 0.56 0.00 76 1011.4
20260510154008 18 304 1.6 4.8 0.00 0.00 0.00 57 1016.1
20260510153521 17 13 0.0 4.8 0.00 0.56 0.00 78 1011.6
20260510153511 18 25 0.0 3.2 0.00 0.00 0.00 57 1016.1
20260510153018 18 300 0.0 6.4 0.00 0.00 0.00 61 1016.1
20260510153016 16 4 0.0 4.8 0.00 0.56 0.00 78 1011.5
20260510152517 16 97 1.6 4.8 0.00 0.56 0.00 78 1011.4
20260510152512 17 300 1.6 8.0 0.00 0.00 0.00 55 1016.1
20260510152015 16 98 1.6 4.8 0.00 0.56 0.00 79 1011.4
20260510152009 17 296 1.6 8.0 0.00 0.00 0.00 57 1016.1
20260510151519 17 299 1.6 3.2 0.00 0.00 0.00 62 1016.0
20260510151512 16 21 0.0 3.2 0.00 0.56 0.00 80 1011.4
20260510151011 15 360 0.0 3.2 0.00 0.56 0.00 82 1011.4
20260510150509 15 360 0.0 3.2 0.00 0.56 0.00 82 1011.5
20260510150024 17 295 3.2 6.4 0.00 0.00 0.00 57 1016.0
20260510150009 15 360 0.0 3.2 0.00 0.56 0.00 83 1011.5
20260510145508 15 360 0.0 1.6 0.00 0.56 0.00 83 1011.6
20260510145506 17 304 0.0 4.8 0.00 0.00 0.00 65 1015.8
20260510145010 17 297 0.0 4.8 0.00 0.00 0.00 65 1015.7
20260510144534 17 298 0.0 4.8 0.00 0.00 0.00 65 1015.5
20260510144506 15 360 0.0 3.2 0.00 0.56 0.00 84 1011.7
20260510144008 17 300 1.6 4.8 0.00 0.00 0.00 65 1015.5
20260510144006 14 254 0.0 3.2 0.00 0.56 0.00 84 1011.7
20260510143506 17 295 1.6 4.8 0.00 0.00 0.00 62 1015.5
20260510143503 14 360 0.0 3.2 0.00 0.56 0.00 84 1011.5
20260510143014 17 297 3.2 4.8 0.00 0.00 0.00 67 1015.4
20260510143002 13 360 0.0 3.2 0.00 0.56 0.00 85 1011.5
20260510142512 17 137 1.6 3.2 0.00 0.00 0.00 67 1015.4
20260510142502 13 360 0.0 3.2 0.00 0.56 0.00 85 1011.5
20260510142012 17 134 1.6 3.2 0.00 0.00 0.00 67 1015.3
20260510142002 13 360 0.0 3.2 0.00 0.56 0.00 85 1011.5
20260510141516 17 134 0.0 1.6 0.00 0.00 0.00 66 1015.3
20260510141502 13 360 0.0 3.2 0.00 0.56 0.00 85 1011.4
20260510141100 13 360 0.0 3.2 0.00 0.56 0.00 85 1011.6
20260510141010 16 134 0.0 1.6 0.00 0.00 0.00 70 1015.3
20260510140559 13 360 0.0 3.2 0.00 0.56 0.00 85 1011.5
20260510140508 16 134 0.0 3.2 0.00 0.00 0.00 70 1015.4
20260510140058 13 360 0.0 3.2 0.00 0.56 0.00 85 1011.3
20260510140020 16 290 0.0 3.2 0.00 0.00 0.00 68 1015.3
20260510135558 12 360 0.0 3.2 0.00 0.56 0.00 85 1011.4
20260510135508 16 122 0.0 4.8 0.00 0.00 0.00 70 1015.2
20260510135058 12 360 0.0 3.2 0.00 0.56 0.00 85 1011.4
20260510135004 16 302 0.0 4.8 0.00 0.00 0.00 70 1015.0
20260510134606 12 360 0.0 3.2 0.00 0.56 0.00 85 1011.4
20260510134505 16 301 3.2 4.8 0.00 0.00 0.00 71 1015.0
20260510134057 12 360 0.0 3.2 0.00 0.56 0.00 85 1011.4
20260510134003 16 300 0.0 3.2 0.00 0.00 0.00 73 1014.7
20260510133557 12 360 0.0 0.0 0.00 0.56 0.00 85 1011.3
20260510133503 15 300 1.6 3.2 0.00 0.00 0.00 75 1014.7
20260510133055 12 360 0.0 1.6 0.00 0.56 0.00 85 1011.3
20260510133007 15 293 0.0 1.6 0.00 0.00 0.00 76 1014.5
20260510132559 12 244 0.0 0.0 0.00 0.56 0.00 85 1011.4
20260510132506 15 293 0.0 1.6 0.00 0.00 0.00 78 1014.5
20260510132007 15 293 0.0 3.2 0.00 0.00 0.00 78 1014.5
20260510131555 12 244 0.0 1.6 0.00 0.56 0.00 85 1011.4
20260510131518 14 293 0.0 3.2 0.00 0.00 0.00 78 1014.4
20260510131054 12 245 0.0 1.6 0.00 0.56 0.00 86 1011.4
20260510131007 14 289 0.0 3.2 0.00 0.00 0.00 79 1014.3
20260510130553 12 360 0.0 0.0 0.00 0.56 0.00 85 1011.2
20260510130507 14 286 1.6 3.2 0.00 0.00 0.00 80 1014.3
20260510130054 11 245 0.0 1.6 0.00 0.56 0.00 85 1011.2
20260510130018 13 286 0.0 3.2 0.00 0.00 0.00 82 1014.3
20260510125555 11 245 0.0 3.2 0.00 0.56 0.00 85 1010.9
20260510125508 13 287 0.0 3.2 0.00 0.00 0.00 82 1014.2
20260510125049 11 208 0.0 3.2 0.00 0.56 0.00 85 1011.0
20260510125009 13 144 0.0 1.6 0.00 0.00 0.00 82 1014.0
20260510124551 11 206 0.0 1.6 0.00 0.56 0.00 85 1010.9
20260510124526 13 143 0.0 1.6 0.00 0.00 0.00 85 1014.0
20260510124048 11 206 0.0 3.2 0.00 0.56 0.00 85 1010.9
20260510124007 13 144 0.0 1.6 0.00 0.00 0.00 86 1014.0
20260510123551 11 206 0.0 3.2 0.00 0.56 0.00 85 1010.9
20260510123504 13 144 0.0 1.6 0.00 0.00 0.00 87 1014.0
20260510123048 11 207 0.0 0.0 0.00 0.56 0.00 85 1010.9
20260510123008 13 144 0.0 1.6 0.00 0.00 0.00 87 1013.9
20260510122546 11 207 0.0 3.2 0.00 0.56 0.00 85 1010.8
20260510122505 13 144 0.0 1.6 0.00 0.00 0.00 87 1013.7
20260510122004 13 144 0.0 1.6 0.00 0.00 0.00 88 1013.5
20260510121546 11 207 0.0 3.2 0.00 0.56 0.00 85 1011.0
20260510121512 12 143 0.0 1.6 0.00 0.00 0.00 89 1013.4
20260510121049 11 207 0.0 1.6 0.00 0.56 0.00 85 1010.8
20260510121007 12 144 0.0 0.0 0.00 0.00 0.00 89 1013.2
20260510120542 11 207 0.0 0.0 0.00 0.56 0.00 85 1010.6
20260510120509 12 144 0.0 0.0 0.00 0.00 0.00 89 1013.2
20260510120042 11 207 0.0 0.0 0.00 0.56 0.00 85 1010.5
20260510120022 12 144 0.0 0.0 0.00 0.00 0.00 89 1013.1
20260510115540 11 207 0.0 0.0 0.00 0.56 0.00 85 1010.5
20260510115511 12 143 0.0 1.6 0.00 0.00 0.00 89 1012.9
20260510115039 11 207 0.0 0.0 0.00 0.56 0.00 85 1010.5
20260510115007 12 144 0.0 1.6 0.00 0.00 0.00 88 1012.8
20260510114539 11 207 0.0 0.0 0.00 0.56 0.00 85 1010.5
20260510114521 12 144 0.0 0.0 0.00 0.00 0.00 88 1012.7
20260510114038 11 207 0.0 0.0 0.00 0.56 0.00 85 1010.6
20260510114010 12 144 0.0 0.0 0.00 0.00 0.00 87 1012.8
20260510113539 11 207 0.0 0.0 0.00 0.56 0.00 85 1010.5
20260510113508 12 144 0.0 1.6 0.00 0.00 0.00 87 1012.9
20260510113041 11 207 0.0 0.0 0.00 0.56 0.00 85 1010.4
20260510113026 13 144 0.0 1.6 0.00 0.00 0.00 87 1012.7
20260510112538 10 207 0.0 1.6 0.00 0.56 0.00 85 1010.5
20260510112513 13 144 0.0 1.6 0.00 0.00 0.00 86 1012.6
20260510112004 13 144 0.0 1.6 0.00 0.00 0.00 87 1012.7
20260510111551 10 360 0.0 0.0 0.00 0.56 0.00 85 1010.5
20260510111508 13 144 0.0 1.6 0.00 0.00 0.00 86 1012.6
20260510111038 10 207 0.0 0.0 0.00 0.56 0.00 85 1010.4
20260510111003 13 143 0.0 1.6 0.00 0.00 0.00 85 1012.7
20260510110539 10 207 0.0 0.0 0.00 0.56 0.00 85 1010.2
20260510110508 13 143 0.0 1.6 0.00 0.00 0.00 84 1012.7
20260510110039 10 207 0.0 0.0 0.00 0.56 0.00 85 1010.1
20260510110013 13 144 0.0 1.6 0.00 0.00 0.00 84 1012.9
20260510110003 13 143 0.0 1.6 0.00 0.00 0.00 84 1012.9
20260510105539 10 207 0.0 1.6 0.00 0.56 0.00 85 1010.1
20260510105503 13 143 0.0 1.6 0.00 0.00 0.00 84 1012.9
20260510105040 10 207 0.0 1.6 0.00 0.56 0.00 85 1010.1
20260510105004 13 144 0.0 1.6 0.00 0.00 0.00 83 1012.5
20260510104547 10 207 0.0 0.0 0.00 0.56 0.00 85 1010.0
20260510104504 13 144 0.0 3.2 0.00 0.00 0.00 83 1012.8
20260510104042 10 207 0.0 0.0 0.00 0.56 0.00 85 1009.9
20260510104003 13 144 0.0 3.2 0.00 0.03 0.00 86 1012.7
20260510103537 10 207 0.0 0.0 0.00 0.56 0.00 85 1010.0
20260510103504 13 142 0.0 0.0 0.00 0.03 0.00 87 1012.5
20260510103041 10 207 0.0 0.0 0.00 0.56 0.00 85 1010.0
20260510103004 13 143 0.0 0.0 0.00 0.03 0.00 86 1012.3
20260510102539 10 207 0.0 1.6 0.00 0.56 0.00 85 1009.9
20260510102504 13 143 0.0 0.0 0.00 0.03 0.00 85 1012.2
20260510102004 13 142 0.0 0.0 0.00 0.03 0.00 86 1012.1
20260510101536 10 207 0.0 3.2 0.00 0.56 0.00 85 1010.0
20260510101508 13 143 0.0 0.0 0.00 0.05 0.00 85 1012.0
20260510101038 10 207 0.0 3.2 0.00 0.56 0.00 85 1010.0
20260510101003 13 142 0.0 0.0 0.00 0.08 0.00 85 1011.9
20260510100536 10 207 0.0 0.0 0.00 0.56 0.00 85 1009.9
20260510100503 13 143 0.0 0.0 0.00 0.10 0.00 84 1011.7
20260510100036 10 207 0.0 1.6 0.00 0.56 0.00 85 1010.0
20260510100011 13 142 0.0 0.0 0.00 0.13 0.00 84 1011.7
20260510095536 10 207 0.0 1.6 0.00 0.56 0.00 85 1010.1
20260510095507 13 142 0.0 0.0 0.00 0.13 0.00 84 1011.6
20260510095035 10 360 0.0 3.2 0.00 0.56 0.00 85 1010.1
20260510095001 13 142 0.0 0.0 0.00 0.15 0.00 83 1011.6
20260510094536 10 207 1.6 3.2 0.00 0.56 0.00 85 1010.1
20260510094513 13 142 0.0 0.0 0.00 0.15 0.00 83 1011.5
20260510094036 10 150 0.0 0.0 0.00 0.56 0.00 85 1010.1
20260510094003 13 142 0.0 0.0 0.00 0.15 0.00 83 1011.5
20260510093536 10 150 0.0 0.0 0.00 0.56 0.00 85 1010.1
20260510093503 13 143 0.0 1.6 0.00 0.15 0.00 82 1011.4
20260510093041 10 150 0.0 0.0 0.00 0.56 0.00 85 1010.0
20260510093004 13 143 0.0 1.6 0.00 0.15 0.00 80 1011.2
20260510092537 10 150 0.0 0.0 0.00 0.56 0.00 85 1010.1
20260510092504 13 146 0.0 0.0 0.00 0.15 0.00 81 1011.3
20260510092005 13 146 0.0 0.0 0.00 0.15 0.00 83 1011.4
20260510091536 10 150 0.0 0.0 0.00 0.56 0.00 85 1010.2
20260510091506 13 146 0.0 0.0 0.00 0.18 0.00 83 1011.3
20260510091035 10 150 0.0 0.0 0.00 0.56 0.00 85 1010.3
20260510091004 13 146 0.0 1.6 0.00 0.18 0.00 82 1011.4
20260510090535 10 150 0.0 3.2 0.00 0.56 0.00 85 1010.3
20260510090503 13 146 0.0 1.6 0.00 0.18 0.00 83 1011.4
20260510090036 10 150 0.0 3.2 0.00 0.56 0.00 85 1010.5
20260510090009 13 148 0.0 0.0 0.00 0.18 0.00 83 1011.4
20260510085534 10 162 0.0 1.6 0.00 0.56 0.00 85 1010.4
20260510085502 13 148 0.0 0.0 0.00 0.20 0.00 83 1011.4
20260510085034 10 162 0.0 1.6 0.00 0.56 0.00 85 1010.6
20260510085006 13 148 0.0 0.0 0.00 0.20 0.00 82 1011.3
20260510084537 10 162 0.0 1.6 0.00 0.56 0.00 85 1010.6
20260510084512 13 148 0.0 1.6 0.00 0.20 0.00 82 1011.2
20260510084034 10 162 0.0 1.6 0.00 0.56 0.00 85 1010.5
20260510084005 13 148 0.0 1.6 0.00 0.20 0.00 81 1011.1
20260510083536 10 162 0.0 3.2 0.00 0.56 0.00 85 1010.5
20260510083504 13 224 0.0 3.2 0.00 0.23 0.00 81 1011.0
20260510083038 10 165 0.0 3.2 0.00 0.56 0.00 85 1010.5
20260510083003 13 224 0.0 3.2 0.00 0.23 0.00 79 1011.1
20260510082532 11 127 0.0 8.0 0.00 0.56 0.00 85 1010.4
20260510082501 13 205 0.0 1.6 0.00 0.25 0.00 80 1010.9
20260510082003 14 140 0.0 0.0 0.00 0.25 0.00 79 1010.8
20260510081541 11 79 0.0 3.2 0.00 0.56 0.00 85 1010.4
20260510081503 14 140 0.0 1.6 0.00 0.28 0.00 78 1010.6
20260510081034 10 12 0.0 3.2 0.00 0.56 0.00 85 1010.3
20260510081003 13 140 0.0 1.6 0.00 0.28 0.00 78 1010.4
20260510080531 10 13 0.0 3.2 0.00 0.56 0.00 85 1010.3
20260510080502 13 131 0.0 1.6 0.00 0.30 0.00 78 1010.3
20260510080031 10 12 0.0 1.6 0.00 0.56 0.00 85 1009.9
20260510080005 13 131 0.0 1.6 0.00 0.30 0.00 79 1010.2
20260510075530 10 11 0.0 1.6 0.00 0.56 0.00 85 1009.8
20260510075504 13 136 0.0 0.0 0.00 0.33 0.00 80 1010.0
20260510075032 10 11 0.0 1.6 0.00 0.56 0.00 85 1009.7
20260510075003 13 136 0.0 0.0 0.00 0.33 0.00 79 1010.0
20260510074530 10 11 0.0 0.0 0.00 0.56 0.00 85 1009.7
20260510074509 13 136 0.0 0.0 0.00 0.33 0.00 80 1010.1
20260510074034 10 11 0.0 1.6 0.00 0.56 0.00 85 1009.7
20260510074006 13 136 0.0 0.0 0.00 0.33 0.00 79 1010.0
20260510073530 11 13 0.0 1.6 0.00 0.56 0.00 85 1009.6
20260510073507 13 136 0.0 0.0 0.00 0.36 0.00 79 1010.0
20260510073035 11 11 0.0 1.6 0.00 0.56 0.00 85 1009.6
20260510073015 13 136 0.0 1.6 0.00 0.36 0.00 78 1010.0
20260510072536 11 11 0.0 0.0 0.00 0.56 0.00 85 1009.5
20260510072506 14 136 0.0 1.6 0.00 0.36 0.00 77 1010.1
20260510072001 14 136 0.0 1.6 0.00 0.36 0.00 76 1010.1
20260510071530 11 11 0.0 0.0 0.00 0.56 0.00 85 1009.6
20260510071503 14 136 0.0 1.6 0.00 0.36 0.00 77 1010.0
20260510071029 11 11 0.0 0.0 0.00 0.56 0.00 85 1009.5
20260510071003 15 136 0.0 1.6 0.00 0.36 0.00 76 1010.0
20260510070529 11 5 0.0 0.0 0.00 0.56 0.00 85 1009.7
20260510070503 15 136 0.0 1.6 0.00 0.36 0.00 74 1010.0
20260510070006 15 136 0.0 1.6 0.00 0.36 0.00 73 1010.0
20260510065528 11 8 0.0 0.0 0.00 0.56 0.00 85 1009.7
20260510065503 15 136 0.0 1.6 0.00 0.36 0.00 73 1010.1
20260510065031 11 7 0.0 0.0 0.00 0.56 0.00 85 1009.7
20260510065004 15 136 0.0 1.6 0.00 0.36 0.00 72 1010.2
20260510064539 11 7 0.0 0.0 0.00 0.56 0.00 85 1009.8
20260510064507 15 136 0.0 1.6 0.00 0.38 0.00 73 1010.3
20260510064030 11 4 0.0 0.0 0.00 0.56 0.00 85 1009.8
20260510064005 16 136 0.0 1.6 0.00 0.38 0.00 71 1010.3
20260510063527 11 5 0.0 0.0 0.00 0.56 0.00 85 1009.9
20260510063503 16 136 0.0 3.2 0.00 0.38 0.00 69 1010.3
20260510063038 11 8 0.0 0.0 0.00 0.56 0.00 85 1009.7
20260510063010 16 137 0.0 3.2 0.00 0.38 0.00 69 1010.2
20260510062527 11 6 0.0 0.0 0.00 0.56 0.00 85 1009.7
20260510062507 16 107 0.0 3.2 0.00 0.38 0.00 69 1010.2
20260510062007 16 129 0.0 3.2 0.00 0.38 0.00 69 1010.4
20260510061533 11 5 0.0 0.0 0.00 0.56 0.00 85 1009.5
20260510061525 16 133 0.0 3.2 0.00 0.38 0.00 70 1010.4
20260510061027 11 5 0.0 0.0 0.00 0.56 0.00 85 1009.3
20260510061007 16 136 0.0 1.6 0.00 0.38 0.00 69 1010.4
20260510060528 11 4 0.0 0.0 0.00 0.56 0.00 85 1009.3
20260510060503 15 128 0.0 1.6 0.00 0.38 0.00 71 1010.5
20260510060040 11 4 0.0 0.0 0.00 0.56 0.00 85 1009.3
20260510060004 15 130 0.0 1.6 0.00 0.38 0.00 71 1010.6
20260510055525 11 4 0.0 0.0 0.00 0.56 0.00 85 1009.4
20260510055503 15 137 0.0 1.6 0.00 0.38 0.00 72 1010.6
20260510055026 11 6 0.0 0.0 0.00 0.56 0.00 85 1009.4
20260510055003 15 133 0.0 1.6 0.00 0.38 0.00 72 1010.6
20260510054526 11 5 0.0 0.0 0.00 0.56 0.00 85 1009.4
20260510054504 15 133 0.0 1.6 0.00 0.38 0.00 71 1010.6
20260510054025 11 4 0.0 0.0 0.00 0.56 0.00 85 1009.4
20260510054004 16 133 0.0 1.6 0.00 0.38 0.00 70 1010.6
20260510053525 10 5 0.0 0.0 0.00 0.56 0.00 85 1009.4
20260510053503 16 133 0.0 1.6 0.00 0.38 0.00 70 1010.6
20260510053037 10 6 0.0 0.0 0.00 0.56 0.00 85 1009.6
20260510053007 16 133 0.0 1.6 0.00 0.38 0.00 70 1010.4
20260510052524 10 6 0.0 0.0 0.00 0.56 0.00 85 1009.5
20260510052507 16 133 0.0 1.6 0.00 0.38 0.00 69 1010.4
20260510052006 16 136 0.0 1.6 0.00 0.38 0.00 68 1010.5
20260510051525 10 7 0.0 0.0 0.00 0.56 0.00 85 1009.5
20260510051513 16 135 0.0 1.6 0.00 0.38 0.00 68 1010.4
20260510051026 10 6 0.0 0.0 0.00 0.56 0.00 85 1009.6
20260510051011 16 135 0.0 1.6 0.00 0.38 0.00 68 1010.4
20260510050522 10 8 0.0 0.0 0.00 0.56 0.00 85 1009.6
20260510050507 16 135 0.0 3.2 0.00 0.38 0.00 68 1010.5
20260510050021 10 7 0.0 0.0 0.00 0.56 0.00 85 1009.7
20260510050018 16 129 0.0 3.2 0.00 0.38 0.00 68 1010.5
20260510045523 10 5 0.0 0.0 0.00 0.56 0.00 84 1009.6
20260510045507 16 123 0.0 1.6 0.00 0.38 0.00 66 1010.5
20260510045020 10 6 0.0 0.0 0.00 0.56 0.00 84 1009.7
20260510045003 16 128 0.0 1.6 0.00 0.38 0.00 67 1010.5
20260510044539 10 7 0.0 0.0 0.00 0.56 0.00 84 1009.6
20260510044504 17 128 0.0 1.6 0.00 0.38 0.00 66 1010.5
20260510044017 10 8 0.0 0.0 0.00 0.56 0.00 84 1009.7
20260510044003 17 110 0.0 1.6 0.00 0.38 0.00 65 1010.5
20260510043517 10 10 0.0 0.0 0.00 0.56 0.00 84 1009.8
20260510043504 17 155 0.0 1.6 0.00 0.38 0.00 67 1010.5
20260510043017 10 360 0.0 0.0 0.00 0.56 0.00 84 1009.8
20260510043007 17 120 0.0 3.2 0.00 0.38 0.00 66 1010.4
20260510042517 10 10 0.0 0.0 0.00 0.56 0.00 84 1009.8
20260510042503 16 89 0.0 3.2 0.00 0.38 0.00 66 1010.4
20260510042004 16 82 0.0 1.6 0.00 0.38 0.00 67 1010.4
20260510041517 10 360 0.0 0.0 0.00 0.56 0.00 84 1009.8
20260510041515 16 131 0.0 1.6 0.00 0.38 0.00 69 1010.4
20260510041016 10 12 0.0 0.0 0.00 0.56 0.00 84 1009.8
20260510041007 16 131 0.0 1.6 0.00 0.38 0.00 69 1010.4
20260510040523 10 360 0.0 0.0 0.00 0.56 0.00 84 1009.7
20260510040507 16 276 0.0 1.6 0.00 0.38 0.00 69 1010.4
20260510040030 10 9 0.0 0.0 0.00 0.56 0.00 84 1009.7
20260510040013 16 276 0.0 1.6 0.00 0.38 0.00 70 1010.4
20260510035515 10 12 0.0 0.0 0.00 0.56 0.56 84 1009.7
20260510035507 16 135 0.0 1.6 0.00 0.38 0.38 69 1010.4
20260510035018 10 7 0.0 0.0 0.00 0.56 0.56 84 1009.7
20260510035008 17 134 0.0 1.6 0.00 0.38 0.38 67 1010.4
20260510034519 17 134 0.0 1.6 0.00 0.38 0.38 65 1010.4
20260510034516 10 12 0.0 0.0 0.00 0.56 0.56 84 1009.6
20260510034015 10 13 0.0 0.0 0.00 0.56 0.56 84 1009.5
20260510034008 16 131 0.0 1.6 0.00 0.38 0.38 65 1010.4
20260510033514 10 360 0.0 0.0 0.00 0.56 0.56 83 1009.3
20260510033503 16 113 0.0 1.6 0.00 0.38 0.38 67 1010.4
20260510033015 10 10 0.0 0.0 0.00 0.56 0.56 83 1009.3
20260510033005 16 98 0.0 1.6 0.00 0.38 0.38 69 1010.4
20260510032514 10 8 0.0 0.0 0.00 0.56 0.56 84 1009.3
20260510032506 15 190 0.0 0.0 0.00 0.38 0.38 72 1010.3
20260510032004 15 190 0.0 0.0 0.00 0.38 0.38 73 1010.3
20260510031515 10 8 0.0 0.0 0.00 0.56 0.56 84 1009.4
20260510031506 15 192 0.0 0.0 0.00 0.38 0.38 74 1010.3
20260510031015 10 6 0.0 0.0 0.00 0.56 0.56 84 1009.3
20260510031005 15 192 0.0 0.0 0.00 0.38 0.38 76 1010.2
20260510030519 10 6 0.0 0.0 0.00 0.56 0.56 84 1009.3
20260510030504 15 191 0.0 0.0 0.00 0.38 0.38 76 1010.2
20260510030016 10 7 0.0 0.0 0.00 0.56 0.56 84 1009.3
20260510030009 15 191 0.0 0.0 0.00 0.38 0.38 79 1010.1
20260510025514 10 5 0.0 0.0 0.00 0.56 0.56 84 1009.3
20260510025504 15 191 0.0 0.0 0.00 0.38 0.38 77 1010.1
20260510025016 10 5 0.0 0.0 0.00 0.56 0.56 83 1009.4
20260510025009 15 191 0.0 0.0 0.00 0.38 0.38 77 1010.0
20260510024517 15 191 0.0 0.0 0.00 0.38 0.38 77 1010.1
20260510024514 10 6 0.0 0.0 0.00 0.56 0.56 83 1009.3
20260510024013 10 6 0.0 0.0 0.00 0.56 0.56 83 1009.2
20260510024007 15 191 0.0 0.0 0.00 0.38 0.38 77 1010.0
20260510023514 11 6 0.0 0.0 0.00 0.56 0.56 83 1009.3
20260510023504 15 191 0.0 0.0 0.00 0.38 0.38 77 1010.0
20260510023035 15 191 0.0 0.0 0.00 0.38 0.38 77 1009.9
20260510023013 11 6 0.0 0.0 0.00 0.56 0.56 83 1009.3
20260510022513 11 6 0.0 0.0 0.00 0.56 0.56 83 1009.4
20260510022507 15 243 0.0 0.0 0.00 0.38 0.38 77 1009.8
20260510022004 15 243 0.0 0.0 0.00 0.38 0.38 76 1009.8
20260510021513 10 4 0.0 0.0 0.00 0.56 0.56 83 1009.6
20260510021506 16 243 0.0 0.0 0.00 0.38 0.38 76 1009.7
20260510021012 10 6 0.0 0.0 0.00 0.56 0.56 83 1009.6
20260510021004 16 243 0.0 0.0 0.00 0.38 0.38 74 1009.6
20260510020513 10 10 0.0 0.0 0.00 0.56 0.56 83 1009.4
20260510020506 16 243 0.0 1.6 0.00 0.38 0.38 72 1009.5
20260510020019 10 360 0.0 0.0 0.00 0.56 0.56 83 1009.5
20260510020008 16 243 0.0 1.6 0.00 0.38 0.38 73 1009.5
20260510015514 10 360 0.0 0.0 0.00 0.56 0.56 82 1009.4
20260510015503 16 243 0.0 0.0 0.00 0.38 0.38 72 1009.4
20260510015019 10 10 0.0 0.0 0.00 0.56 0.56 82 1009.3
20260510015005 16 243 0.0 0.0 0.00 0.38 0.38 72 1009.4
20260510014512 10 360 0.0 0.0 0.00 0.56 0.56 82 1009.3
20260510014012 10 360 0.0 0.0 0.00 0.56 0.56 81 1009.3
20260510014006 16 243 0.0 0.0 0.00 0.38 0.38 70 1009.3
20260510013511 10 360 0.0 0.0 0.00 0.56 0.56 81 1009.4
20260510013020 16 243 0.0 1.6 0.00 0.38 0.38 70 1009.2
20260510013012 10 3 0.0 0.0 0.00 0.56 0.56 81 1009.3
20260510012510 10 3 0.0 0.0 0.00 0.56 0.56 81 1009.4
20260510012506 16 243 0.0 1.6 0.00 0.38 0.38 70 1009.1
20260510012011 17 243 0.0 0.0 0.00 0.38 0.38 70 1009.1
20260510011526 17 243 0.0 0.0 0.00 0.38 0.38 70 1009.0
20260510011515 11 3 0.0 0.0 0.00 0.56 0.56 81 1009.1
20260510011017 17 243 0.0 0.0 0.00 0.38 0.38 68 1008.9
20260510011011 11 3 0.0 0.0 0.00 0.56 0.56 81 1009.2
20260510010511 11 2 0.0 0.0 0.00 0.56 0.56 81 1009.1
20260510010504 17 243 0.0 1.6 0.00 0.38 0.38 67 1008.9
20260510010011 11 2 0.0 0.0 0.00 0.56 0.56 81 1009.0
20260510005510 11 2 0.0 0.0 0.00 0.56 0.56 81 1008.8
20260510005503 18 243 0.0 1.6 0.00 0.38 0.38 64 1008.7
20260510005009 11 2 0.0 0.0 0.00 0.56 0.56 81 1008.8
20260510005004 18 243 0.0 1.6 0.00 0.38 0.38 63 1008.6
20260510004511 18 243 0.0 1.6 0.00 0.38 0.38 63 1008.5
20260510004509 11 2 0.0 0.0 0.00 0.56 0.56 81 1008.9
20260510004011 11 2 0.0 0.0 0.00 0.56 0.56 81 1008.9
20260510004008 19 243 0.0 1.6 0.00 0.38 0.38 62 1008.5
20260510003509 11 2 0.0 0.0 0.00 0.56 0.56 81 1008.8
20260510003507 20 243 0.0 1.6 0.00 0.38 0.38 59 1008.3
20260510003014 20 243 0.0 1.6 0.00 0.38 0.38 57 1008.2
20260510003010 11 2 0.0 0.0 0.00 0.56 0.56 81 1008.8
20260510002510 11 3 0.0 0.0 0.00 0.56 0.56 81 1008.8
20260510002507 20 243 0.0 1.6 0.00 0.38 0.38 55 1008.2
20260510002008 21 247 0.0 1.6 0.00 0.38 0.38 54 1008.0
20260510001520 21 136 0.0 3.2 0.00 0.38 0.38 54 1007.9
20260510001508 11 2 0.0 0.0 0.00 0.56 0.56 81 1008.8
20260510001009 11 2 0.0 0.0 0.00 0.56 0.56 81 1008.9
20260510001006 21 136 0.0 4.8 0.00 0.38 0.38 51 1007.9
20260510000511 21 136 1.6 6.4 0.00 0.38 0.38 49 1007.8
20260510000509 12 2 0.0 0.0 0.00 0.56 0.56 81 1008.8
20260510000024 22 136 1.6 11.3 0.00 0.38 0.38 48 1007.7
20260510000015 12 2 0.0 0.0 0.00 0.56 0.56 81 1008.7
20260509235510 22 135 3.2 11.3 0.00 0.38 0.38 48 1007.5
20260509235508 12 2 0.0 0.0 0.00 0.56 0.56 81 1008.7
20260509235009 12 2 0.0 1.6 0.00 0.56 0.56 81 1008.7
20260509235006 22 285 0.0 9.7 0.00 0.38 0.38 49 1007.5
20260509234511 12 2 0.0 1.6 0.00 0.56 0.56 81 1008.8
20260509234508 22 121 1.6 9.7 0.00 0.38 0.38 48 1007.4
20260509234013 12 2 0.0 0.0 0.00 0.56 0.56 81 1008.6
20260509234002 22 125 0.0 6.4 0.00 0.38 0.38 47 1007.4
20260509233506 12 2 0.0 0.0 0.00 0.56 0.56 81 1008.5
20260509233012 22 13 1.6 8.0 0.00 0.38 0.38 46 1007.4
20260509233009 12 2 0.0 0.0 0.00 0.56 0.56 81 1008.4
20260509232509 12 2 0.0 1.6 0.00 0.56 0.56 81 1008.3
20260509232506 22 90 3.2 8.0 0.00 0.38 0.38 46 1007.5
20260509232007 22 134 1.6 9.7 0.00 0.38 0.38 46 1007.4
20260509231520 22 127 1.6 9.7 0.00 0.38 0.38 45 1007.4
20260509231508 12 61 0.0 0.0 0.00 0.56 0.56 81 1008.6
20260509231007 22 130 4.8 9.7 0.00 0.38 0.38 45 1007.4
20260509230507 22 128 1.6 9.7 0.00 0.38 0.38 45 1007.4
20260509230022 22 174 3.2 9.7 0.00 0.38 0.38 46 1007.3
20260509230014 12 61 0.0 1.6 0.00 0.56 0.56 81 1008.6
20260509225510 23 73 3.2 9.7 0.00 0.38 0.38 46 1007.3
20260509225506 12 61 0.0 1.6 0.00 0.56 0.56 81 1008.7
20260509225011 23 89 3.2 9.7 0.00 0.38 0.38 45 1007.2
20260509225005 12 61 0.0 1.6 0.03 0.56 0.56 81 1008.7
20260509224526 23 140 3.2 9.7 0.00 0.38 0.38 45 1007.3
20260509224505 12 61 0.0 0.0 0.05 0.56 0.56 81 1008.8
20260509224010 23 60 3.2 9.7 0.00 0.38 0.38 44 1007.4
20260509224005 12 61 0.0 0.0 0.13 0.56 0.56 81 1008.8
20260509223506 23 154 1.6 12.9 0.00 0.38 0.38 45 1007.2
20260509223010 23 127 4.8 12.9 0.00 0.38 0.38 44 1007.3
20260509223007 12 61 0.0 0.0 0.23 0.56 0.56 79 1008.8
20260509222506 24 114 3.2 12.9 0.00 0.38 0.38 45 1007.2
20260509222503 12 61 0.0 1.6 0.30 0.56 0.56 79 1008.8
20260509222006 24 138 1.6 9.7 0.00 0.38 0.38 46 1007.2
20260509221514 24 148 3.2 9.7 0.00 0.38 0.38 47 1007.2
20260509221503 12 21 0.0 1.6 0.36 0.56 0.56 79 1008.8
20260509221008 24 64 1.6 11.3 0.00 0.38 0.38 45 1007.2
20260509221003 12 21 0.0 1.6 0.41 0.56 0.56 79 1009.0
20260509220506 24 141 4.8 11.3 0.00 0.38 0.38 45 1007.3
20260509220503 12 21 0.0 0.0 0.46 0.56 0.56 77 1008.9
20260509220019 24 154 3.2 8.0 0.00 0.38 0.38 45 1007.2
20260509220001 12 21 0.0 0.0 0.46 0.56 0.56 76 1008.9
20260509215508 24 124 3.2 8.0 0.00 0.38 0.38 44 1007.3
20260509215502 12 21 0.0 0.0 0.46 0.56 0.56 75 1008.8
20260509215101 12 21 0.0 0.0 0.48 0.56 0.56 74 1009.2
20260509215009 23 134 3.2 8.0 0.00 0.38 0.38 44 1007.3
20260509214600 12 21 0.0 0.0 0.46 0.53 0.53 73 1009.3
20260509214523 23 136 3.2 6.4 0.00 0.38 0.38 45 1007.3
20260509214100 12 21 0.0 0.0 0.41 0.48 0.48 73 1009.1
20260509214009 23 134 1.6 9.7 0.00 0.38 0.38 46 1007.4
20260509213600 12 21 0.0 0.0 0.36 0.43 0.43 73 1009.3
20260509213508 23 125 1.6 14.5 0.00 0.38 0.38 46 1007.4
20260509213102 12 21 0.0 1.6 0.33 0.38 0.38 72 1009.2
20260509213026 23 86 4.8 14.5 0.00 0.38 0.38 44 1007.4
20260509212559 12 21 0.0 1.6 0.25 0.30 0.30 72 1009.1
20260509212512 24 132 3.2 9.7 0.00 0.38 0.38 45 1007.4
20260509212006 24 49 1.6 6.4 0.00 0.38 0.38 47 1007.4
20260509211606 12 21 0.0 0.0 0.18 0.23 0.23 71 1009.0
20260509211515 24 161 1.6 9.7 0.00 0.38 0.38 46 1007.4
20260509211058 12 21 0.0 0.0 0.13 0.18 0.18 70 1009.0
20260509211006 23 115 1.6 12.9 0.00 0.38 0.38 45 1007.5
20260509210558 12 360 0.0 3.2 0.08 0.13 0.13 70 1009.3
20260509210508 23 107 1.6 12.9 0.00 0.38 0.38 45 1007.6
20260509210056 13 360 0.0 3.2 0.05 0.10 0.10 70 1009.2
20260509210017 24 124 3.2 12.9 0.00 0.38 0.38 47 1007.5
20260509205557 13 360 0.0 3.2 0.05 0.10 0.10 69 1009.1
20260509205506 24 127 6.4 12.9 0.00 0.38 0.38 46 1007.6
20260509205057 13 360 0.0 3.2 0.05 0.10 0.10 69 1008.8
20260509205012 23 162 4.8 16.1 0.00 0.38 0.38 48 1007.5
20260509204557 13 360 0.0 3.2 0.03 0.08 0.08 69 1008.8
20260509204521 23 224 6.4 16.1 0.00 0.38 0.38 50 1007.5
20260509204057 13 33 0.0 4.8 0.03 0.08 0.08 69 1009.2
20260509204007 23 139 3.2 12.9 0.00 0.38 0.38 48 1007.5
20260509203555 13 360 0.0 4.8 0.05 0.08 0.08 69 1009.0
20260509203510 23 129 3.2 12.9 0.00 0.38 0.38 49 1007.6
20260509203104 13 360 0.0 1.6 0.05 0.08 0.08 68 1009.1
20260509203038 23 46 1.6 9.7 0.00 0.38 0.38 46 1007.6
20260509202555 13 360 0.0 1.6 0.03 0.05 0.05 68 1009.1
20260509202510 23 31 1.6 9.7 0.00 0.38 0.38 50 1007.8
20260509202012 23 49 1.6 9.7 0.00 0.38 0.38 48 1007.7
20260509201603 13 360 0.0 1.6 0.03 0.05 0.05 69 1009.2
20260509201524 23 110 1.6 14.5 0.00 0.38 0.38 50 1007.8
20260509201058 13 360 0.0 1.6 0.03 0.05 0.05 68 1009.1
20260509201007 23 132 6.4 14.5 0.00 0.38 0.38 49 1007.9
20260509200555 13 360 0.0 1.6 0.03 0.05 0.05 68 1009.3
20260509200507 23 94 3.2 12.9 0.00 0.38 0.38 50 1008.0
20260509200108 13 360 0.0 1.6 0.03 0.05 0.05 68 1009.4
20260509200016 23 129 3.2 12.9 0.00 0.38 0.38 52 1007.9
20260509195555 13 360 0.0 1.6 0.03 0.05 0.05 67 1009.4
20260509195507 23 133 1.6 11.3 0.00 0.38 0.38 50 1008.0
20260509195054 13 360 0.0 1.6 0.03 0.05 0.05 67 1009.5
20260509195007 23 124 1.6 11.3 0.00 0.38 0.38 51 1008.1
20260509194555 14 124 0.0 4.8 0.03 0.05 0.05 66 1009.5
20260509194519 23 109 3.2 11.3 0.00 0.38 0.38 54 1008.2
20260509194054 14 124 0.0 4.8 0.03 0.05 0.05 65 1009.6
20260509194009 23 147 3.2 8.0 0.00 0.38 0.38 50 1008.1
20260509193555 14 133 0.0 3.2 0.03 0.05 0.05 66 1009.8
20260509193509 23 304 3.2 11.3 0.00 0.38 0.38 52 1008.2
20260509193112 14 133 0.0 3.2 0.00 0.03 0.03 66 1009.6
20260509193022 23 309 1.6 11.3 0.00 0.38 0.38 55 1008.2
20260509192554 14 133 0.0 1.6 0.00 0.03 0.03 66 1009.6
20260509192508 23 145 1.6 9.7 0.00 0.38 0.38 51 1008.3
20260509192010 23 169 3.2 9.7 0.00 0.38 0.38 53 1008.3
20260509191554 14 134 0.0 1.6 0.00 0.03 0.03 66 1009.4
20260509191524 22 142 1.6 9.7 0.00 0.38 0.38 54 1008.3
20260509191054 14 134 0.0 1.6 0.00 0.03 0.03 66 1009.4
20260509191015 22 136 3.2 11.3 0.00 0.38 0.38 56 1008.3